Погода в Коценах

Латвия     57°31′12″N   25°20′21″E
темп.,
°C
ветер,
м/с
пор.,
м/с
влажн.,
%
обл.,
%
осадки,
мм/ч
давл.,
гПа
погр.,
м
5 марта, пт
пт523:00−2зсз49785 0.0 1010765
02:00−3зсз598133 0.0 1011788
05:00−3ссз5965100 0.1 10121137
08:00−4ссз495260 0.1 1013895
11:00−1сз47380 0.0 10151602
14:000сз463730 0.0 10151909
17:00−2ссз2465100 0.1 1016766
20:00−4ссв257098 0.2 1019232
6 марта, сб
сб623:00−4ссз256022 0.0 1020224
02:00−5зсз256711 0.0 1022212
05:00−6зсз25770 0.0 1022170
08:00−5зюз27770 0.0 1022304
11:000зюз695124 0.0 10201206
14:00+1зюз7135261 0.0 10161439
17:00+1зюз81649100 0.0 10131474
20:000зюз91758100 0.0 10091301
7 марта, вс
вс723:000зюз81591100 0.7 10041138
02:00−2сз61291100 4.4 1003964
05:00−4сз6145494 0.1 10041761
08:00−4з6125547 0.1 10051208
11:00−1зсз8145184 0.1 10032107
14:00−1з9155092 0.5 10012297
17:00−1зсз81556100 0.4 10001942
20:00−5сз6127167 0.4 10031077
8 марта, пн
пн823:00−5сз4879100 0.1 1006966
02:00−6ссз388498 0.1 1008760
05:00−7сз258532 0.0 1009211
08:00−7с477966 0.1 1012781
11:00−6с4665100 0.1 10141059
14:00−5с5761100 0.1 10161177
17:00−6с4858100 0.0 10181247
20:00−8с397055 0.0 1021644
9 марта, вт
вт923:00−9ссз23780 0.0 1023116
02:00−9сз22790 0.0 102465
05:00−9зсз22770 0.0 102439
08:00−8зюз237313 0.0 1025113
11:00−3з36570 0.0 1026778
14:00−1з47480 0.0 1026966
17:00−2зюз485014 0.0 1025814
20:00−4зюз411597 0.0 1025390